{"data":{"norad_id":68792,"epoch":"2026-09-20T03:49:35.467392Z","epoch_age_seconds":88948,"freshness":"FRESH","line1":"1 68792U 26088A   26263.15943828  .00003524  00000+0  23591-3 0  9991","line2":"2 68792  97.5198  50.1552 0015090 139.2268 221.0092 15.07472443 22598","mean_motion":15.07472443,"eccentricity":0.001509,"inclination_deg":97.5198,"raan_deg":50.1552,"arg_perigee_deg":139.2268,"mean_anomaly_deg":221.0092,"bstar":0.00023591,"rev_number":2259,"period_min":95.524134234539,"perigee_km":533.48122937302,"apogee_km":554.37201738839,"semimajor_km":6922.0636233807,"source":"CELESTRAK","updated_at":"2026-09-20T09:00:24.462275Z"}}